Regional Weather Roundup
Issued by NWS

Home | Current Version | Previous Version | Graphics & Text | Print | Product List | Glossary On
Versions: 1 2 3 4 5 6 7 8 9 10 11 12 13 14 15 16 17 18 19 20 21 22 23 24 25 26 27 28 29 30 31 32 33 34 35 36 37 38 39 40 41 42 43 44 45 46 47 48 49 50
000
ASUS45 KABQ 282110
RWRNM
WEATHER ROUNDUP FOR NEW MEXICO
NATIONAL WEATHER SERVICE ALBUQUERQUE NM
300 PM MDT MON JUL 28 2014

NOTE: "FAIR" MEANS FEW OR NO CLOUDS BELOW 12,000 FEET AGL WITH NO
       SIGNIFICANT WEATHER OR OBSTRUCTIONS TO VISION.

      THIS PRODUCT IS RELEASED AS TWO VERSIONS.  ONE VERSION NEAR
      THE TOP OF THE HOUR CONTAINING PRELIMINARY DATA FROM ALBUQUERQUE
      AND OTHER STATIONS.  A FINAL VERSION WITH ADDITIONAL DATA IS
      ISSUED ABOUT 10 MINUTES AFTER THE HOUR.

NMZ501-503-504-510>518-282200-
NORTHWEST PLATEAU/NORTHCENTRAL MOUNTAINS

CITY           SKY/WX    TMP DP  RH WIND       PRES   REMARKS
FARMINGTON     MOSUNNY   84  53  34 VRB7G17   30.28F
LOS ALAMOS     MOSUNNY   75  50  41 S15       30.45S
SANTA FE       CLOUDY    73  57  57 SW12      30.39F
TAOS           PTSUNNY   72  48  43 S16       30.45F
ANGEL FIRE     LGT RAIN  58  51  78 SW7       30.56S

$$
NMZ402-403-502-505>509-282200-
WESTCENTRAL MOUNTAINS/SOUTHWEST MOUNTAINS

CITY           SKY/WX    TMP DP  RH WIND       PRES   REMARKS
GALLUP         CLOUDY    72  56  57 W10       30.39F
SILVER CITY    PTSUNNY   82  52  34 SE8G18    30.33F

$$
NMZ407-409-411-412-282200-
SOUTHERN DESERTS

CITY           SKY/WX    TMP DP  RH WIND       PRES   REMARKS
LORDSBURG      FAIR      86  54  32 CALM      30.23F
DEMING         MOSUNNY   89  55  31 S12G20    30.24F
LAS CRUCES     SUNNY     88  54  31 SE13G18   30.26F
ALAMOGORDO     CLOUDY    84  57  39 CALM      30.24F
T OR C         MOSUNNY   86  54  33 VRB5      30.27F

$$
NMZ519>523-282200-
CENTRAL VALLEYS/CENTRAL HIGHLANDS

CITY           SKY/WX    TMP DP  RH WIND       PRES   REMARKS
ALBUQUERQUE    MOSUNNY   85  51  31 S12       30.32F
DOUBLE EAGLE   PTSUNNY   82  52  34 VRB6      30.36F
MORIARTY ARPT  FAIR      80  49  33 S9G17     30.41F
CLINES CORNERS MOSUNNY   78  50  37 S9G17     30.44F
BELEN          FAIR      84  50  30 S12G20    30.32F
SOCORRO        FAIR      85  51  31 SE14G21   30.29F

$$
NMZ524>526-539-540-282200-
SOUTHCENTRAL MOUNTAINS

CITY           SKY/WX    TMP DP  RH WIND       PRES   REMARKS
RUIDOSO        TSTM      66  59  77 E3        30.47F

$$
NMZ527>531-282200-
NORTHEAST HIGHLANDS/NORTHEAST PLAINS

CITY           SKY/WX    TMP DP  RH WIND       PRES   REMARKS
LAS VEGAS      MOSUNNY   73  56  54 S16G28    30.45F
RATON          CLOUDY    70  60  70 S12       30.41
CLAYTON        CLOUDY    68  59  73 S13       30.38F

$$
NMZ532>537-282200-
EASTCENTRAL PLAINS

CITY           SKY/WX    TMP DP  RH WIND       PRES   REMARKS
TUCUMCARI      MOSUNNY   84  59  42 SE12      30.30F
CANNON AFB     NOT AVBL
CLOVIS AIRPORT NOT AVBL

$$
NMZ028-029-538-282200-
SOUTHEAST PLAINS

CITY           SKY/WX    TMP DP  RH WIND       PRES   REMARKS
ROSWELL        PTSUNNY   91  56  30 E6        30.22F
ARTESIA        PTSUNNY   91  57  31 N6        30.21F
CARLSBAD       MOSUNNY   96  52  22 E9        30.17F
HOBBS          PTSUNNY   90  55  31 NE13G21   30.24F


$$


USA.gov is the U.S. government's official web portal to all federal, state and local government web resources and services.